Flag for Germany Weather past 2 weeks in Emmendingen, Baden-Württemberg, Germany

Now
55 °F

Fog.


Feels Like: 55 °F
Forecast: 47 / 73 °F
Wind: 3 mph from Northeast

Location: Lahr - CAN-AFB

Current Time: Oct 2, 2014 at 10:19:27 AM

Latest Report: Oct 2, 2014 at 9:50 AM


Visibility: 0 mi

Pressure: 30.39 "Hg

Humidity: 100%

Dew point: 55 °F

Location of EmmendingenLocation

Historic Weather in Emmendingen — Graph

°F

Emmendingen temperature yesterday

Maximum temperature yesterday: 72 °F (at 2:50 PM)
Minimum temperature yesterday: 54 °F (at 7:50 AM)
Average temperature yesterday: 65 °F

Past Weeks' High & Low Weather Summary

 TemperatureHumidityPressure
High77 °F (Sep 19, 2:50 PM)100% (Sep 17, 8:20 AM)30.36 "Hg (Sep 17, 8:20 AM)
Low41 °F (Sep 23, 7:50 AM)42% (Sep 28, 5:50 PM)29.83 "Hg (Sep 17, 3:50 PM)
Average63 °F76%30.13 "Hg
* Reported Sep 17 8:20 AM — Oct 2 8:50 AM, Emmendingen, Weather by CustomWeather, © 2014

Note: Actual official high and low records may vary slightly from our data, if they occured in-between our weather recording intervals... More about our weather records

Advertising

Emmendingen weather history for previous 24 hours

 ConditionsComfort  
Time TempWeatherWind HumidityBarometerVisibility
8:50 AM
Oct 2
52 °FFog.2 mph100%30.36 "Hg0 mi
8:20 AM52 °FFog.2 mph100%30.36 "Hg0 mi
7:50 AM52 °FFog.2 mph100%30.36 "Hg0 mi
7:20 AM52 °FFog.3 mph100%30.36 "Hg0 mi
6:50 AM52 °FFog.1 mph100%30.36 "Hg0 mi
7:50 PM
Oct 1
64 °FPassing clouds.3 mph73%30.33 "HgN/A
7:20 PM64 °FPassing clouds.3 mph73%30.30 "HgN/A
6:50 PM64 °FPassing clouds.5 mph73%30.30 "HgN/A
6:20 PM68 °FPassing clouds.6 mph69%30.30 "HgN/A
5:50 PM70 °FPassing clouds.7 mph64%30.30 "HgN/A
5:20 PM72 °FPassing clouds.8 mph61%30.30 "HgN/A
4:50 PM72 °FPassing clouds.6 mph65%30.30 "HgN/A
4:20 PM70 °FPassing clouds.6 mph64%30.30 "HgN/A
3:50 PM72 °FPassing clouds.6 mph69%30.30 "HgN/A
3:20 PM72 °FPassing clouds.7 mph65%30.30 "HgN/A
2:50 PM72 °FPassing clouds.7 mph61%30.30 "HgN/A
2:20 PM70 °FPassing clouds.6 mph69%30.30 "HgN/A
1:50 PM70 °FPassing clouds.6 mph69%30.33 "HgN/A
1:20 PM70 °FPassing clouds.7 mph73%30.33 "HgN/A
12:50 PM68 °FPassing clouds.6 mph78%30.33 "HgN/A
12:20 PM66 °FPassing clouds.3 mph83%30.33 "HgN/A
11:50 AM64 °FScattered clouds.2 mph83%30.33 "Hg4 mi
11:20 AM63 °FFog.3 mph94%30.33 "Hg2 mi
10:50 AM61 °FFog.2 mph100%30.33 "Hg1 mi
10:20 AM57 °FFog.1 mph100%30.33 "Hg0 mi
Weather by CustomWeather, © 2014

See weather overviewHow to use our weather pages